Year,Month,Day,Hour,Minute,Value (Times are PST for temperature in C)
2019,03,29,00,00,6.80
2019,03,29,00,01,6.80
2019,03,29,00,02,6.70
2019,03,29,00,03,6.70
2019,03,29,00,04,6.70
2019,03,29,00,05,6.70
2019,03,29,00,06,6.70
2019,03,29,00,07,6.70
2019,03,29,00,08,6.70
2019,03,29,00,09,6.70
2019,03,29,00,10,6.70
2019,03,29,00,11,6.70
2019,03,29,00,12,6.70
2019,03,29,00,13,6.70
2019,03,29,00,14,6.70
2019,03,29,00,15,6.70
2019,03,29,00,16,6.70
2019,03,29,00,17,6.70
2019,03,29,00,18,6.70
2019,03,29,00,19,6.70
2019,03,29,00,20,6.70
2019,03,29,00,21,6.60
2019,03,29,00,22,6.60
2019,03,29,00,23,6.60
2019,03,29,00,24,6.60
2019,03,29,00,25,6.60
2019,03,29,00,26,6.60
2019,03,29,00,27,6.60
2019,03,29,00,28,6.60
2019,03,29,00,29,6.60
2019,03,29,00,30,6.60
2019,03,29,00,31,6.60
2019,03,29,00,32,6.60
2019,03,29,00,33,6.60
2019,03,29,00,34,6.60
2019,03,29,00,35,6.60
2019,03,29,00,36,6.60
2019,03,29,00,37,6.60
2019,03,29,00,38,6.60
2019,03,29,00,39,6.60
2019,03,29,00,40,6.60
2019,03,29,00,41,6.60
2019,03,29,00,42,6.60
2019,03,29,00,43,6.60
2019,03,29,00,44,6.60
2019,03,29,00,45,6.60
2019,03,29,00,46,6.50
2019,03,29,00,47,6.50
2019,03,29,00,48,6.50
2019,03,29,00,49,6.50
2019,03,29,00,50,6.50
2019,03,29,00,51,6.50
2019,03,29,00,52,6.40
2019,03,29,00,53,6.40
2019,03,29,00,54,6.40
2019,03,29,00,55,6.40
2019,03,29,00,56,6.40
2019,03,29,00,57,6.40
2019,03,29,00,58,6.40
2019,03,29,00,59,6.40
2019,03,29,01,00,6.30
2019,03,29,01,01,6.30
2019,03,29,01,02,6.30
2019,03,29,01,03,6.30
2019,03,29,01,04,6.30
2019,03,29,01,05,6.30
2019,03,29,01,06,6.30
2019,03,29,01,07,6.30
2019,03,29,01,08,6.30
2019,03,29,01,09,6.30
2019,03,29,01,10,6.20
2019,03,29,01,11,6.20
2019,03,29,01,12,6.20
2019,03,29,01,13,6.20
2019,03,29,01,14,6.20
2019,03,29,01,15,6.20
2019,03,29,01,16,6.20
2019,03,29,01,17,6.20
2019,03,29,01,18,6.20
2019,03,29,01,19,6.10
2019,03,29,01,20,6.10
2019,03,29,01,21,6.10
2019,03,29,01,22,6.10
2019,03,29,01,23,6.10
2019,03,29,01,24,6.10
2019,03,29,01,25,6.10
2019,03,29,01,26,6.10
2019,03,29,01,27,6.10
2019,03,29,01,28,6.20
2019,03,29,01,29,6.20
2019,03,29,01,30,6.20
2019,03,29,01,31,6.20
2019,03,29,01,32,6.20
2019,03,29,01,33,6.20
2019,03,29,01,34,6.20
2019,03,29,01,35,6.20
2019,03,29,01,36,6.20
2019,03,29,01,37,6.20
2019,03,29,01,38,6.20
2019,03,29,01,39,6.20
2019,03,29,01,40,6.20
2019,03,29,01,41,6.30
2019,03,29,01,42,6.30
2019,03,29,01,43,6.30
2019,03,29,01,44,6.30
2019,03,29,01,45,6.30
2019,03,29,01,46,6.30
2019,03,29,01,47,6.30
2019,03,29,01,48,6.30
2019,03,29,01,49,6.30
2019,03,29,01,50,6.30
2019,03,29,01,51,6.30
2019,03,29,01,52,6.30
2019,03,29,01,53,6.30
2019,03,29,01,54,6.30
2019,03,29,01,55,6.30
2019,03,29,01,56,6.30
2019,03,29,01,57,6.30
2019,03,29,01,58,6.30
2019,03,29,01,59,6.30
2019,03,29,02,00,6.30
2019,03,29,02,01,6.30
2019,03,29,02,02,6.30
2019,03,29,02,03,6.30
2019,03,29,02,04,6.20
2019,03,29,02,05,6.20
2019,03,29,02,06,6.20
2019,03,29,02,07,6.20
2019,03,29,02,08,6.20
2019,03,29,02,09,6.20
2019,03,29,02,10,6.20
2019,03,29,02,11,6.30
2019,03,29,02,12,6.30
2019,03,29,02,13,6.30
2019,03,29,02,14,6.30
2019,03,29,02,15,6.30
2019,03,29,02,16,6.30
2019,03,29,02,17,6.30
2019,03,29,02,18,6.30
2019,03,29,02,19,6.20
2019,03,29,02,20,6.20
2019,03,29,02,21,6.20
2019,03,29,02,22,6.20
2019,03,29,02,23,6.20
2019,03,29,02,24,6.20
2019,03,29,02,25,6.10
2019,03,29,02,26,6.10
2019,03,29,02,27,6.10
2019,03,29,02,28,6.10
2019,03,29,02,29,6.10
2019,03,29,02,30,6.10
2019,03,29,02,31,6.10
2019,03,29,02,32,6.10
2019,03,29,02,33,6.10
2019,03,29,02,34,6.10
2019,03,29,02,35,6.10
2019,03,29,02,36,6.10
2019,03,29,02,37,6.10
2019,03,29,02,38,6.10
2019,03,29,02,39,6.10
2019,03,29,02,40,6.10
2019,03,29,02,41,6.10
2019,03,29,02,42,6.00
2019,03,29,02,43,6.00
2019,03,29,02,44,6.00
2019,03,29,02,45,6.00
2019,03,29,02,46,6.00
2019,03,29,02,47,6.00
2019,03,29,02,48,5.90
2019,03,29,02,49,5.90
2019,03,29,02,50,5.90
2019,03,29,02,51,5.90
2019,03,29,02,52,5.90
2019,03,29,02,53,5.90
2019,03,29,02,54,5.90
2019,03,29,02,55,5.90
2019,03,29,02,56,5.80
2019,03,29,02,57,5.80
2019,03,29,02,58,5.80
2019,03,29,02,59,5.80
2019,03,29,03,00,5.80
2019,03,29,03,01,5.80
2019,03,29,03,02,5.80
2019,03,29,03,03,5.80
2019,03,29,03,04,5.70
2019,03,29,03,05,5.70
2019,03,29,03,06,5.70
2019,03,29,03,07,5.70
2019,03,29,03,08,5.70
2019,03,29,03,09,5.70
2019,03,29,03,10,5.70
2019,03,29,03,11,5.70
2019,03,29,03,12,5.70
2019,03,29,03,13,5.70
2019,03,29,03,14,5.70
2019,03,29,03,15,5.70
2019,03,29,03,16,5.70
2019,03,29,03,17,5.70
2019,03,29,03,18,5.60
2019,03,29,03,19,5.70
2019,03,29,03,20,5.60
2019,03,29,03,21,5.60
2019,03,29,03,22,5.60
2019,03,29,03,23,5.60
2019,03,29,03,24,5.60
2019,03,29,03,25,5.60
2019,03,29,03,26,5.60
2019,03,29,03,27,5.60
2019,03,29,03,28,5.60
2019,03,29,03,29,5.60
2019,03,29,03,30,5.60
2019,03,29,03,31,5.60
2019,03,29,03,32,5.60
2019,03,29,03,33,5.50
2019,03,29,03,34,5.50
2019,03,29,03,35,5.50
2019,03,29,03,36,5.50
2019,03,29,03,37,5.50
2019,03,29,03,38,5.50
2019,03,29,03,39,5.40
2019,03,29,03,40,5.40
2019,03,29,03,41,5.40
2019,03,29,03,42,5.40
2019,03,29,03,43,5.40
2019,03,29,03,44,5.40
2019,03,29,03,45,5.40
2019,03,29,03,46,5.40
2019,03,29,03,47,5.30
2019,03,29,03,48,5.30
2019,03,29,03,49,5.30
2019,03,29,03,50,5.30
2019,03,29,03,51,5.30
2019,03,29,03,52,5.30
2019,03,29,03,53,5.30
2019,03,29,03,54,5.30
2019,03,29,03,55,5.20
2019,03,29,03,56,5.20
2019,03,29,03,57,5.20
2019,03,29,03,58,5.20
2019,03,29,03,59,5.20
2019,03,29,04,00,5.20
2019,03,29,04,01,5.20
2019,03,29,04,02,5.20
2019,03,29,04,03,5.20
2019,03,29,04,04,5.20
2019,03,29,04,05,5.20
2019,03,29,04,06,5.20
2019,03,29,04,07,5.20
2019,03,29,04,08,5.20
2019,03,29,04,09,5.20
2019,03,29,04,10,5.30
2019,03,29,04,11,5.30
2019,03,29,04,12,5.30
2019,03,29,04,13,5.30
2019,03,29,04,14,5.30
2019,03,29,04,15,5.30
2019,03,29,04,16,5.30
2019,03,29,04,17,5.30
2019,03,29,04,18,5.30
2019,03,29,04,19,5.30
2019,03,29,04,20,5.30
2019,03,29,04,21,5.40
2019,03,29,04,22,5.40
2019,03,29,04,23,5.40
2019,03,29,04,24,5.50
2019,03,29,04,25,5.50
2019,03,29,04,26,5.60
2019,03,29,04,27,5.70
2019,03,29,04,28,5.80
2019,03,29,04,29,6.00
2019,03,29,04,30,6.10
2019,03,29,04,31,6.30
2019,03,29,04,32,6.40
2019,03,29,04,33,6.60
2019,03,29,04,34,6.70
2019,03,29,04,35,6.80
2019,03,29,04,36,6.90
2019,03,29,04,37,7.00
2019,03,29,04,38,7.20
2019,03,29,04,39,7.30
2019,03,29,04,40,7.40
2019,03,29,04,41,7.50
2019,03,29,04,42,7.70
2019,03,29,04,43,7.80
2019,03,29,04,44,7.90
2019,03,29,04,45,8.00
2019,03,29,04,46,8.10
2019,03,29,04,47,8.20
2019,03,29,04,48,8.20
2019,03,29,04,49,8.30
2019,03,29,04,50,8.30
2019,03,29,04,51,8.30
2019,03,29,04,52,8.30
2019,03,29,04,53,8.30
2019,03,29,04,54,8.30
2019,03,29,04,55,8.40
2019,03,29,04,56,8.40
2019,03,29,04,57,8.50
2019,03,29,04,58,8.50
2019,03,29,04,59,8.60
2019,03,29,05,00,8.70
2019,03,29,05,01,8.80
2019,03,29,05,02,8.90
2019,03,29,05,03,8.90
2019,03,29,05,04,8.90
2019,03,29,05,05,8.80
2019,03,29,05,06,8.80
2019,03,29,05,07,8.70
2019,03,29,05,08,8.70
2019,03,29,05,09,8.70
2019,03,29,05,10,8.70
2019,03,29,05,11,8.60
2019,03,29,05,12,8.60
2019,03,29,05,13,8.50
2019,03,29,05,14,8.50
2019,03,29,05,15,8.40
2019,03,29,05,16,8.40
2019,03,29,05,17,8.40
2019,03,29,05,18,8.30
2019,03,29,05,19,8.30
2019,03,29,05,20,8.30
2019,03,29,05,21,8.20
2019,03,29,05,22,8.20
2019,03,29,05,23,8.20
2019,03,29,05,24,8.10
2019,03,29,05,25,8.10
2019,03,29,05,26,8.10
2019,03,29,05,27,8.00
2019,03,29,05,28,8.00
2019,03,29,05,29,8.10
2019,03,29,05,30,8.10
2019,03,29,05,31,8.20
2019,03,29,05,32,8.30
2019,03,29,05,33,8.40
2019,03,29,05,34,8.40
2019,03,29,05,35,8.50
2019,03,29,05,36,8.60
2019,03,29,05,37,8.60
2019,03,29,05,38,8.60
2019,03,29,05,39,8.60
2019,03,29,05,40,8.60
2019,03,29,05,41,8.60
2019,03,29,05,42,8.60
2019,03,29,05,43,8.50
2019,03,29,05,44,8.50
2019,03,29,05,45,8.50
2019,03,29,05,46,8.60
2019,03,29,05,47,8.50
2019,03,29,05,48,8.40
2019,03,29,05,49,8.40
2019,03,29,05,50,8.40
2019,03,29,05,51,8.40
2019,03,29,05,52,8.30
2019,03,29,05,53,8.30
2019,03,29,05,54,8.20
2019,03,29,05,55,8.20
2019,03,29,05,56,8.30
2019,03,29,05,57,8.30
2019,03,29,05,58,8.30
2019,03,29,05,59,8.30
2019,03,29,06,00,8.30
2019,03,29,06,01,8.30
2019,03,29,06,02,8.30
2019,03,29,06,03,8.30
2019,03,29,06,04,8.30
2019,03,29,06,05,8.40
2019,03,29,06,06,8.40
2019,03,29,06,07,8.40
2019,03,29,06,08,8.30
2019,03,29,06,09,8.30
2019,03,29,06,10,8.30
2019,03,29,06,11,8.30
2019,03,29,06,12,8.40
2019,03,29,06,13,8.40
2019,03,29,06,14,8.40
2019,03,29,06,15,8.40
2019,03,29,06,16,8.40
2019,03,29,06,17,8.30
2019,03,29,06,18,8.30
2019,03,29,06,19,8.30
2019,03,29,06,20,8.30
2019,03,29,06,21,8.30
2019,03,29,06,22,8.30
2019,03,29,06,23,8.30
2019,03,29,06,24,8.30
2019,03,29,06,25,8.30
2019,03,29,06,26,8.20
2019,03,29,06,27,8.20
2019,03,29,06,28,8.10
2019,03,29,06,29,8.00
2019,03,29,06,30,7.90
2019,03,29,06,31,7.80
2019,03,29,06,32,7.80
2019,03,29,06,33,7.80
2019,03,29,06,34,7.70
2019,03,29,06,35,7.70
2019,03,29,06,36,7.60
2019,03,29,06,37,7.60
2019,03,29,06,38,7.60
2019,03,29,06,39,7.50
2019,03,29,06,40,7.50
2019,03,29,06,41,7.50
2019,03,29,06,42,7.50
2019,03,29,06,43,7.40
2019,03,29,06,44,7.30
2019,03,29,06,45,7.30
2019,03,29,06,46,7.20
2019,03,29,06,47,7.20
2019,03,29,06,48,7.10
2019,03,29,06,49,7.10
2019,03,29,06,50,7.10
2019,03,29,06,51,7.00
2019,03,29,06,52,6.90
2019,03,29,06,53,6.90
2019,03,29,06,54,6.80
2019,03,29,06,55,6.80
2019,03,29,06,56,6.80
2019,03,29,06,57,6.70
2019,03,29,06,58,6.60
2019,03,29,06,59,6.60
2019,03,29,07,00,6.50
2019,03,29,07,01,6.40
2019,03,29,07,02,6.40
2019,03,29,07,03,6.40
2019,03,29,07,04,6.30
2019,03,29,07,05,6.30
2019,03,29,07,06,6.30
2019,03,29,07,07,6.20
2019,03,29,07,08,6.20
2019,03,29,07,09,6.10
2019,03,29,07,10,6.10
2019,03,29,07,11,6.10
2019,03,29,07,12,6.10
2019,03,29,07,13,6.00
2019,03,29,07,14,6.00
2019,03,29,07,15,6.00
2019,03,29,07,16,5.90
2019,03,29,07,17,5.90
2019,03,29,07,18,5.90
2019,03,29,07,19,5.80
2019,03,29,07,20,5.80
2019,03,29,07,21,5.80
2019,03,29,07,22,5.80
2019,03,29,07,23,5.70
2019,03,29,07,24,5.70
2019,03,29,07,25,5.70
2019,03,29,07,26,5.70
2019,03,29,07,27,5.70
2019,03,29,07,28,5.70
2019,03,29,07,29,5.70
2019,03,29,07,30,5.70
2019,03,29,07,31,5.70
2019,03,29,07,32,5.70
2019,03,29,07,33,5.70
2019,03,29,07,34,5.70
2019,03,29,07,35,5.70
2019,03,29,07,36,5.70
2019,03,29,07,37,5.70
2019,03,29,07,38,5.70
2019,03,29,07,39,5.70
2019,03,29,07,40,5.70
2019,03,29,07,41,5.70
2019,03,29,07,42,5.70
2019,03,29,07,43,5.70
2019,03,29,07,44,5.70
2019,03,29,07,45,5.70
2019,03,29,07,46,5.70
2019,03,29,07,47,5.70
2019,03,29,07,48,5.70
2019,03,29,07,49,5.70
2019,03,29,07,50,5.70
2019,03,29,07,51,5.80
2019,03,29,07,52,5.80
2019,03,29,07,53,5.80
2019,03,29,07,54,5.80
2019,03,29,07,55,5.80
2019,03,29,07,56,5.80
2019,03,29,07,57,5.80
2019,03,29,07,58,5.90
2019,03,29,07,59,5.90
2019,03,29,08,00,5.90
2019,03,29,08,01,5.90
2019,03,29,08,02,6.00
2019,03,29,08,03,6.00
2019,03,29,08,04,6.10
2019,03,29,08,05,6.10
2019,03,29,08,06,6.20
2019,03,29,08,07,6.20
2019,03,29,08,08,6.30
2019,03,29,08,09,6.30
2019,03,29,08,10,6.30
2019,03,29,08,11,6.30
2019,03,29,08,12,6.30
2019,03,29,08,13,6.30
2019,03,29,08,14,6.30
2019,03,29,08,15,6.30
2019,03,29,08,16,6.30
2019,03,29,08,17,6.30
2019,03,29,08,18,6.40
2019,03,29,08,19,6.40
2019,03,29,08,20,6.40
2019,03,29,08,21,6.50
2019,03,29,08,22,6.50
2019,03,29,08,23,6.50
2019,03,29,08,24,6.60
2019,03,29,08,25,6.60
2019,03,29,08,26,6.70
2019,03,29,08,27,6.80
2019,03,29,08,28,6.90
2019,03,29,08,29,7.00
2019,03,29,08,30,7.00
2019,03,29,08,31,7.10
2019,03,29,08,32,7.20
2019,03,29,08,33,7.30
2019,03,29,08,34,7.40
2019,03,29,08,35,7.60
2019,03,29,08,36,7.70
2019,03,29,08,37,7.80
2019,03,29,08,38,7.90
2019,03,29,08,39,8.00
2019,03,29,08,40,8.00
2019,03,29,08,41,8.10
2019,03,29,08,42,8.10
2019,03,29,08,43,8.20
2019,03,29,08,44,8.20
2019,03,29,08,45,8.30
2019,03,29,08,46,8.30
2019,03,29,08,47,8.40
2019,03,29,08,48,8.40
2019,03,29,08,49,8.40
2019,03,29,08,50,8.50
2019,03,29,08,51,8.50
2019,03,29,08,52,8.60
2019,03,29,08,53,8.60
2019,03,29,08,54,8.60
2019,03,29,08,55,8.70
2019,03,29,08,56,8.70
2019,03,29,08,57,8.70
2019,03,29,08,58,8.80
2019,03,29,08,59,8.80
2019,03,29,09,00,8.80
2019,03,29,09,01,8.80
2019,03,29,09,02,8.80
2019,03,29,09,03,8.80
2019,03,29,09,04,8.90
2019,03,29,09,05,8.90
2019,03,29,09,06,8.90
2019,03,29,09,07,8.90
2019,03,29,09,08,9.00
2019,03,29,09,09,9.00
2019,03,29,09,10,9.00
2019,03,29,09,11,9.00
2019,03,29,09,12,9.10
2019,03,29,09,13,9.10
2019,03,29,09,14,9.10
2019,03,29,09,15,9.20
2019,03,29,09,16,9.20
2019,03,29,09,17,9.20
2019,03,29,09,18,9.20
2019,03,29,09,19,9.30
2019,03,29,09,20,9.30
2019,03,29,09,21,9.30
2019,03,29,09,22,9.30
2019,03,29,09,23,9.30
2019,03,29,09,24,9.30
2019,03,29,09,25,9.30
2019,03,29,09,26,9.30
2019,03,29,09,27,9.30
2019,03,29,09,28,9.30
2019,03,29,09,29,9.30
2019,03,29,09,30,9.30
2019,03,29,09,31,9.40
2019,03,29,09,32,9.40
2019,03,29,09,33,9.50
2019,03,29,09,34,9.50
2019,03,29,09,35,9.50
2019,03,29,09,36,9.60
2019,03,29,09,37,9.70
2019,03,29,09,38,9.70
2019,03,29,09,39,9.80
2019,03,29,09,40,9.80
2019,03,29,09,41,9.80
2019,03,29,09,42,9.90
2019,03,29,09,43,9.90
2019,03,29,09,44,10.00
2019,03,29,09,45,10.00
2019,03,29,09,46,10.10
2019,03,29,09,47,10.10
2019,03,29,09,48,10.10
2019,03,29,09,49,10.10
2019,03,29,09,50,10.20
2019,03,29,09,51,10.20
2019,03,29,09,52,10.20
2019,03,29,09,53,10.30
2019,03,29,09,54,10.30
2019,03,29,09,55,10.30
2019,03,29,09,56,10.30
2019,03,29,09,57,10.30
2019,03,29,09,58,10.30
2019,03,29,09,59,10.30
2019,03,29,10,00,10.30
2019,03,29,10,01,10.40
2019,03,29,10,02,10.40
2019,03,29,10,03,10.50
2019,03,29,10,04,10.50
2019,03,29,10,05,10.60
2019,03,29,10,06,10.50
2019,03,29,10,07,10.60
2019,03,29,10,08,10.50
2019,03,29,10,09,10.50
2019,03,29,10,10,10.50
2019,03,29,10,11,10.60
2019,03,29,10,12,10.60
2019,03,29,10,13,10.60
2019,03,29,10,14,10.60
2019,03,29,10,15,10.60
2019,03,29,10,16,10.60
2019,03,29,10,17,10.60
2019,03,29,10,18,10.60
2019,03,29,10,19,10.70
2019,03,29,10,20,10.70
2019,03,29,10,21,10.70
2019,03,29,10,22,10.70
2019,03,29,10,23,10.70
2019,03,29,10,24,10.70
2019,03,29,10,25,10.70
2019,03,29,10,26,10.70
2019,03,29,10,27,10.70
2019,03,29,10,28,10.70
2019,03,29,10,29,10.70
2019,03,29,10,30,10.70
2019,03,29,10,31,10.70
2019,03,29,10,32,10.70
2019,03,29,10,33,10.60
2019,03,29,10,34,10.60
2019,03,29,10,35,10.60
2019,03,29,10,36,10.60
2019,03,29,10,37,10.50
2019,03,29,10,38,10.50
2019,03,29,10,39,10.50
2019,03,29,10,40,10.50
2019,03,29,10,41,10.60
2019,03,29,10,42,10.60
2019,03,29,10,43,10.70
2019,03,29,10,44,10.80
2019,03,29,10,45,10.90
2019,03,29,10,46,11.00
2019,03,29,10,47,11.10
2019,03,29,10,48,11.10
2019,03,29,10,49,11.20
2019,03,29,10,50,11.30
2019,03,29,10,51,11.30
2019,03,29,10,52,11.30
2019,03,29,10,53,11.30
2019,03,29,10,54,11.20
2019,03,29,10,55,11.20
2019,03,29,10,56,11.30
2019,03,29,10,57,11.30
2019,03,29,10,58,11.40
2019,03,29,10,59,11.40
2019,03,29,11,00,11.50
2019,03,29,11,01,11.60
2019,03,29,11,02,11.60
2019,03,29,11,03,11.60
2019,03,29,11,04,11.60
2019,03,29,11,05,11.50
2019,03,29,11,06,11.60
2019,03,29,11,07,11.60
2019,03,29,11,08,11.70
2019,03,29,11,09,11.70
2019,03,29,11,10,11.70
2019,03,29,11,11,11.60
2019,03,29,11,12,11.60
2019,03,29,11,13,11.60
2019,03,29,11,14,11.60
2019,03,29,11,15,11.60
2019,03,29,11,16,11.60
2019,03,29,11,17,11.50
2019,03,29,11,18,11.40
2019,03,29,11,19,11.40
2019,03,29,11,20,11.30
2019,03,29,11,21,11.30
2019,03,29,11,22,11.20
2019,03,29,11,23,11.20
2019,03,29,11,24,11.20
2019,03,29,11,25,11.30
2019,03,29,11,26,11.30
2019,03,29,11,27,11.30
2019,03,29,11,28,11.30
2019,03,29,11,29,11.30
2019,03,29,11,30,11.30
2019,03,29,11,31,11.30
2019,03,29,11,32,11.30
2019,03,29,11,33,11.40
2019,03,29,11,34,11.40
2019,03,29,11,35,11.40
2019,03,29,11,36,11.50
2019,03,29,11,37,11.60
2019,03,29,11,38,11.60
2019,03,29,11,39,11.60
2019,03,29,11,40,11.60
2019,03,29,11,41,11.60
2019,03,29,11,42,11.60
2019,03,29,11,43,11.50
2019,03,29,11,44,11.40
2019,03,29,11,45,11.40
2019,03,29,11,46,11.30
2019,03,29,11,47,11.30
2019,03,29,11,48,11.30
2019,03,29,11,49,11.30
2019,03,29,11,50,11.30
2019,03,29,11,51,11.30
2019,03,29,11,52,11.30
2019,03,29,11,53,11.40
2019,03,29,11,54,11.50
2019,03,29,11,55,11.60
2019,03,29,11,56,11.70
2019,03,29,11,57,11.80
2019,03,29,11,58,11.90
2019,03,29,11,59,11.90
2019,03,29,12,00,11.90
2019,03,29,12,01,11.90
2019,03,29,12,02,11.90
2019,03,29,12,03,11.90
2019,03,29,12,04,11.90
2019,03,29,12,05,11.90
2019,03,29,12,06,11.90
2019,03,29,12,07,11.90
2019,03,29,12,08,12.00
2019,03,29,12,09,11.90
2019,03,29,12,10,12.00
2019,03,29,12,11,12.00
2019,03,29,12,12,12.10
2019,03,29,12,13,12.10
2019,03,29,12,14,12.20
2019,03,29,12,15,12.20
2019,03,29,12,16,12.20
2019,03,29,12,17,12.30
2019,03,29,12,18,12.30
2019,03,29,12,19,12.30
2019,03,29,12,20,12.30
2019,03,29,12,21,12.20
2019,03,29,12,22,12.20
2019,03,29,12,23,12.30
2019,03,29,12,24,12.30
2019,03,29,12,25,12.30
2019,03,29,12,26,12.40
2019,03,29,12,27,12.30
2019,03,29,12,28,12.30
2019,03,29,12,29,12.30
2019,03,29,12,30,12.30
2019,03,29,12,31,12.30
2019,03,29,12,32,12.30
2019,03,29,12,33,12.40
2019,03,29,12,34,12.40
2019,03,29,12,35,12.50
2019,03,29,12,36,12.60
2019,03,29,12,37,12.60
2019,03,29,12,38,12.60
2019,03,29,12,39,12.60
2019,03,29,12,40,12.60
2019,03,29,12,41,12.60
2019,03,29,12,42,12.70
2019,03,29,12,43,12.70
2019,03,29,12,44,12.80
2019,03,29,12,45,12.80
2019,03,29,12,46,12.80
2019,03,29,12,47,12.80
2019,03,29,12,48,12.70
2019,03,29,12,49,12.70
2019,03,29,12,50,12.60
2019,03,29,12,51,12.60
2019,03,29,12,52,12.60
2019,03,29,12,53,12.60
2019,03,29,12,54,12.70
2019,03,29,12,55,12.70
2019,03,29,12,56,12.80
2019,03,29,12,57,12.80
2019,03,29,12,58,12.80
2019,03,29,12,59,12.80
2019,03,29,13,00,12.80
2019,03,29,13,01,12.90
2019,03,29,13,02,12.90
2019,03,29,13,03,13.00
2019,03,29,13,04,13.10
2019,03,29,13,05,13.10
2019,03,29,13,06,13.10
2019,03,29,13,07,13.10
2019,03,29,13,08,13.10
2019,03,29,13,09,13.20
2019,03,29,13,10,13.20
2019,03,29,13,11,13.20
2019,03,29,13,12,13.30
2019,03,29,13,13,13.30
2019,03,29,13,14,13.40
2019,03,29,13,15,13.40
2019,03,29,13,16,13.40
2019,03,29,13,17,13.40
2019,03,29,13,18,13.50
2019,03,29,13,19,13.50
2019,03,29,13,20,13.50
2019,03,29,13,21,13.50
2019,03,29,13,22,13.50
2019,03,29,13,23,13.50
2019,03,29,13,24,13.50
2019,03,29,13,25,13.50
2019,03,29,13,26,13.50
2019,03,29,13,27,13.50
2019,03,29,13,28,13.50
2019,03,29,13,29,13.50
2019,03,29,13,30,13.60
2019,03,29,13,31,13.70
2019,03,29,13,32,13.80
2019,03,29,13,33,13.90
2019,03,29,13,34,13.90
2019,03,29,13,35,14.00
2019,03,29,13,36,13.90
2019,03,29,13,37,13.90
2019,03,29,13,38,13.90
2019,03,29,13,39,14.00
2019,03,29,13,40,14.00
2019,03,29,13,41,14.00
2019,03,29,13,42,14.00
2019,03,29,13,43,14.00
2019,03,29,13,44,14.10
2019,03,29,13,45,14.10
2019,03,29,13,46,14.20
2019,03,29,13,47,14.20
2019,03,29,13,48,14.30
2019,03,29,13,49,14.30
2019,03,29,13,50,14.30
2019,03,29,13,51,14.30
2019,03,29,13,52,14.30
2019,03,29,13,53,14.30
2019,03,29,13,54,14.30
2019,03,29,13,55,14.30
2019,03,29,13,56,14.30
2019,03,29,13,57,14.40
2019,03,29,13,58,14.50
2019,03,29,13,59,14.60
2019,03,29,14,00,14.60
2019,03,29,14,01,14.60
2019,03,29,14,02,14.60
2019,03,29,14,03,14.70
2019,03,29,14,04,14.70
2019,03,29,14,05,14.70
2019,03,29,14,06,14.70
2019,03,29,14,07,14.70
2019,03,29,14,08,14.70
2019,03,29,14,09,14.70
2019,03,29,14,10,14.70
2019,03,29,14,11,14.70
2019,03,29,14,12,14.70
2019,03,29,14,13,14.70
2019,03,29,14,14,14.70
2019,03,29,14,15,14.70
2019,03,29,14,16,14.70
2019,03,29,14,17,14.70
2019,03,29,14,18,14.80
2019,03,29,14,19,14.80
2019,03,29,14,20,14.90
2019,03,29,14,21,15.00
2019,03,29,14,22,15.10
2019,03,29,14,23,15.10
2019,03,29,14,24,14.90
2019,03,29,14,25,14.90
2019,03,29,14,26,14.80
2019,03,29,14,27,14.90
2019,03,29,14,28,15.00
2019,03,29,14,29,15.10
2019,03,29,14,30,15.20
2019,03,29,14,31,15.20
2019,03,29,14,32,15.30
2019,03,29,14,33,15.20
2019,03,29,14,34,15.20
2019,03,29,14,35,15.10
2019,03,29,14,36,15.10
2019,03,29,14,37,15.10
2019,03,29,14,38,15.00
2019,03,29,14,39,15.10
2019,03,29,14,40,15.00
2019,03,29,14,41,15.10
2019,03,29,14,42,15.00
2019,03,29,14,43,15.00
2019,03,29,14,44,15.00
2019,03,29,14,45,15.00
2019,03,29,14,46,15.00
2019,03,29,14,47,15.10
2019,03,29,14,48,15.10
2019,03,29,14,49,15.00
2019,03,29,14,50,15.00
2019,03,29,14,51,14.90
2019,03,29,14,52,14.90
2019,03,29,14,53,14.90
2019,03,29,14,54,14.90
2019,03,29,14,55,14.90
2019,03,29,14,56,15.00
2019,03,29,14,57,15.00
2019,03,29,14,58,15.00
2019,03,29,14,59,15.00
2019,03,29,15,00,15.00
2019,03,29,15,01,15.00
2019,03,29,15,02,14.90
2019,03,29,15,03,14.90
2019,03,29,15,04,14.90
2019,03,29,15,05,14.90
2019,03,29,15,06,15.00
2019,03,29,15,07,15.00
2019,03,29,15,08,15.00
2019,03,29,15,09,14.90
2019,03,29,15,10,14.90
2019,03,29,15,11,14.90
2019,03,29,15,12,14.90
2019,03,29,15,13,14.90
2019,03,29,15,14,14.90
2019,03,29,15,15,14.80
2019,03,29,15,16,14.80
2019,03,29,15,17,14.90
2019,03,29,15,18,14.90
2019,03,29,15,19,14.90
2019,03,29,15,20,15.00
2019,03,29,15,21,15.00
2019,03,29,15,22,15.10
2019,03,29,15,23,15.10
2019,03,29,15,24,15.20
2019,03,29,15,25,15.20
2019,03,29,15,26,15.20
2019,03,29,15,27,15.30
2019,03,29,15,28,15.30
2019,03,29,15,29,15.30
2019,03,29,15,30,15.20
2019,03,29,15,31,15.20
2019,03,29,15,32,15.20
2019,03,29,15,33,15.20
2019,03,29,15,34,15.20
2019,03,29,15,35,15.20
2019,03,29,15,36,15.20
2019,03,29,15,37,15.20
2019,03,29,15,38,15.20
2019,03,29,15,39,15.20
2019,03,29,15,40,15.20
2019,03,29,15,41,15.20
2019,03,29,15,42,15.10
2019,03,29,15,43,15.10
2019,03,29,15,44,15.20
2019,03,29,15,45,15.20
2019,03,29,15,46,15.30
2019,03,29,15,47,15.30
2019,03,29,15,48,15.30
2019,03,29,15,49,15.40
2019,03,29,15,50,15.40
2019,03,29,15,51,15.30
2019,03,29,15,52,15.20
2019,03,29,15,53,15.10
2019,03,29,15,54,15.00
2019,03,29,15,55,14.90
2019,03,29,15,56,14.80
2019,03,29,15,57,14.80
2019,03,29,15,58,14.80
2019,03,29,15,59,14.70
2019,03,29,16,00,14.70
2019,03,29,16,01,14.60
2019,03,29,16,02,14.60
2019,03,29,16,03,14.60
2019,03,29,16,04,14.60
2019,03,29,16,05,14.60
2019,03,29,16,06,14.70
2019,03,29,16,07,14.70
2019,03,29,16,08,14.80
2019,03,29,16,09,14.80
2019,03,29,16,10,14.80
2019,03,29,16,11,14.80
2019,03,29,16,12,14.80
2019,03,29,16,13,14.90
2019,03,29,16,14,14.90
2019,03,29,16,15,14.80
2019,03,29,16,16,14.80
2019,03,29,16,17,14.80
2019,03,29,16,18,14.80
2019,03,29,16,19,14.90
2019,03,29,16,20,14.90
2019,03,29,16,21,15.00
2019,03,29,16,22,15.10
2019,03,29,16,23,15.10
2019,03,29,16,24,15.10
2019,03,29,16,25,15.20
2019,03,29,16,26,15.10
2019,03,29,16,27,15.10
2019,03,29,16,28,15.10
2019,03,29,16,29,15.00
2019,03,29,16,30,15.00
2019,03,29,16,31,14.90
2019,03,29,16,32,14.80
2019,03,29,16,33,14.70
2019,03,29,16,34,14.70
2019,03,29,16,35,14.70
2019,03,29,16,36,14.70
2019,03,29,16,37,14.70
2019,03,29,16,38,14.70
2019,03,29,16,39,14.70
2019,03,29,16,40,14.70
2019,03,29,16,41,14.80
2019,03,29,16,42,14.80
2019,03,29,16,43,14.80
2019,03,29,16,44,14.80
2019,03,29,16,45,14.90
2019,03,29,16,46,14.90
2019,03,29,16,47,14.90
2019,03,29,16,48,14.90
2019,03,29,16,49,14.90
2019,03,29,16,50,15.00
2019,03,29,16,51,15.00
2019,03,29,16,52,15.10
2019,03,29,16,53,15.10
2019,03,29,16,54,15.10
2019,03,29,16,55,15.20
2019,03,29,16,56,15.20
2019,03,29,16,57,15.30
2019,03,29,16,58,15.30
2019,03,29,16,59,15.30
2019,03,29,17,00,15.40
2019,03,29,17,01,15.40
2019,03,29,17,02,15.50
2019,03,29,17,03,15.50
2019,03,29,17,04,15.50
2019,03,29,17,05,15.50
2019,03,29,17,06,15.50
2019,03,29,17,07,15.50
2019,03,29,17,08,15.50
2019,03,29,17,09,15.50
2019,03,29,17,10,15.50
2019,03,29,17,11,15.40
2019,03,29,17,12,15.40
2019,03,29,17,13,15.40
2019,03,29,17,14,15.40
2019,03,29,17,15,15.30
2019,03,29,17,16,15.30
2019,03,29,17,17,15.30
2019,03,29,17,18,15.20
2019,03,29,17,19,15.20
2019,03,29,17,20,15.10
2019,03,29,17,21,15.10
2019,03,29,17,22,15.00
2019,03,29,17,23,15.00
2019,03,29,17,24,14.90
2019,03,29,17,25,14.90
2019,03,29,17,26,14.90
2019,03,29,17,27,14.90
2019,03,29,17,28,14.90
2019,03,29,17,29,14.80
2019,03,29,17,30,14.80
2019,03,29,17,31,14.80
2019,03,29,17,32,14.80
2019,03,29,17,33,14.80
2019,03,29,17,34,14.70
2019,03,29,17,35,14.70
2019,03,29,17,36,14.70
2019,03,29,17,37,14.70
2019,03,29,17,38,14.70
2019,03,29,17,39,14.70
2019,03,29,17,40,14.70
2019,03,29,17,41,14.70
2019,03,29,17,42,14.70
2019,03,29,17,43,14.80
2019,03,29,17,44,14.80